Regional Weather Roundup
Issued by NWS

Home | Current Version | Previous Version | Graphics & Text | Print | Product List | Glossary On
Versions: 1 2 3 4 5 6 7 8 9 10 11 12 13 14 15 16 17 18 19 20 21 22 23 24 25 26 27 28 29 30 31 32 33 34 35 36 37 38 39 40 41 42 43 44 45 46 47 48 49 50
000
ASUS43 KIND 302209
RWRIN

WEATHER ROUNDUP FOR INDIANA
NATIONAL WEATHER SERVICE INDIANAPOLIS IN
600 PM EDT THU OCT 30 2014

NOTE: "FAIR" INDICATES FEW OR NO CLOUDS BELOW 12,000 FEET WITH NO
SIGNIFICANT WEATHER AND/OR OBSTRUCTIONS TO VISIBILITY.

* - STATION DOES NOT REPORT WEATHER SUCH AS PRECIPITATION OR FOG.

+ - STATION NOT QUALITY CONTROLLED BY THE NATIONAL WEATHER SERVICE.
    USE DATA WITH CAUTION...ESPECIALLY DEWPOINT AND RELATIVE
    HUMIDITY OBSERVATIONS.

INZ001>003-010>013-019-020-302300-
NORTHWEST INDIANA

CITY           SKY/WX    TMP DP  RH WIND       PRES   REMARKS
GARY /AIRPORT/ CLOUDY    52  34  50 W10       30.07S
KNOX *+        CLOUDY    50  33  51 W3        30.06F
LA PORTE +     CLOUDY    50  36  58 SW7       30.07F
MICHIGAN CITY+ CLOUDY    48  32  53 CALM      30.07S
MONTICELLO +   CLOUDY    50  35  58 CALM      30.06F
RENSSELAER +   CLOUDY    50  36  57 CALM      30.07F
VALPARAISO     CLOUDY    49  34  56 SW7       30.07S

$$

LMZ046-743>745-302300-
SOUTHERN LAKE MICHIGAN

STATION/POSITION TIME  TEMP WIND        PRES
                       AIR  DIR/SP/G
                 (UTC) (F)  (DEG/KT/KT) (MB)
MICHIGAN CITY    2200   50  230/  6/  9   N/A

$$

INZ004-005-014>016-021>024-302300-
NORTH CENTRAL INDIANA

CITY           SKY/WX    TMP DP  RH WIND       PRES   REMARKS
ELKHART        CLOUDY    48  32  53 W9        30.07R
GOSHEN         CLOUDY    50  34  54 SW6       30.06S
LOGANSPORT +   CLOUDY    48  36  61 W5        30.07F
PERU/GRISSOM   CLOUDY    50  40  69 SW3       30.06S
ROCHESTER +    MOCLDY    52  34  50 W6        30.07S
SOUTH BEND     CLOUDY    50  33  52 W6        30.08S
WARSAW +       MOCLDY    48  34  57 SW5       30.06F

$$

INZ006>009-017-018-025>027-302300-
NORTHEAST INDIANA

CITY           SKY/WX    TMP DP  RH WIND       PRES   REMARKS
ANGOLA *+      CLOUDY    48  34  57 W5        30.06S
AUBURN +       CLOUDY    48  32  53 CALM      30.08S
FORT WAYNE     CLOUDY    49  36  61 CALM      30.08F
HUNTINGTON +   MOCLDY   N/A N/A N/A CALM      30.07S

$$

INZ028-029-035-036-043>045-051>053-302300-
WEST CENTRAL INDIANA

CITY           SKY/WX    TMP DP  RH WIND       PRES   REMARKS
CRAWFORDSVL +  CLOUDY    50  32  50 W3        30.06F
GREENCASTLE +  CLOUDY    50  34  53 CALM      30.07S
LAFAYETTE      CLOUDY    50  36  58 CALM      30.06F
TERRE HAUTE    CLOUDY    52  37  56 CALM      30.07S

$$

INZ030>032-037>040-046>048-054>057-064-065-302300-
CENTRAL INDIANA

CITY           SKY/WX    TMP DP  RH WIND       PRES   REMARKS
CP ATTERBURY + MOCLDY    50  36  57 E5        30.07S
COLUMBUS       CLEAR     50  34  53 CALM      30.07S
FRANKFORT +    CLOUDY    52  34  50 CALM      30.08S
INDIANAPOLIS   MOCLDY    52  31  44 CALM      30.06S
-EAGLE CREEK   MOCLDY    52  33  48 CALM      30.06S
KOKOMO *+      CLOUDY    52  34  50 S5        30.07F
MARION +       MOCLDY    50  32  49 CALM      30.08S
MT COMFORT *+  CLEAR     52  23  32 SW3       30.07S
SHELBYVILLE    PTCLDY    53  34  48 CALM      30.06S
ZIONSVILLE +   MOCLDY    51  32  47 CALM      30.07F

$$

INZ033-034-041-042-049-050-058-059-302300-
EAST CENTRAL INDIANA

CITY           SKY/WX    TMP DP  RH WIND       PRES   REMARKS
MUNCIE         PTCLDY    50  35  56 CALM      30.07S

$$

INZ060-061-067>069-081>083-085>088-302300-
SOUTHWEST INDIANA

CITY           SKY/WX    TMP DP  RH WIND       PRES   REMARKS
EVANSVILLE     MOCLDY    58  38  47 SE3       30.05F
HUNTINGBURG *+ CLEAR     57  37  47 CALM      30.06S
WASHINGTON +   MOCLDY    55  37  51 CALM      30.05F

$$

INZ062-063-066-070>080-084-089>092-302300-
SOUTH CENTRAL AND SOUTHEAST INDIANA

CITY           SKY/WX    TMP DP  RH WIND       PRES   REMARKS
BEDFORD +      PTCLDY    54  32  43 CALM      30.06S
BLOOMINGTON    CLOUDY    53  35  50 E3        30.06S

$$




USA.gov is the U.S. government's official web portal to all federal, state and local government web resources and services.